Home   Weather   Salzwedel   Past weeks

Flag for Germany Past Weather in Salzwedel, Saxony-Anhalt, Germany — Yesterday and Last 2 Weeks

Now
27 °F

Passing clouds.


Feels Like: 20 °F
Forecast: 26 / 36 °F
Wind: 6 mph from West

Location: Fassberg

Current Time: Dec 6, 2016 at 6:54:48 am

Latest Report: Dec 6, 2016 at 6:20 am


Visibility: N/A

Pressure: 30.39 "Hg

Humidity: 93%

Dew Point: 25 °F

Location of SalzwedelLocation

Past Weather in Salzwedel — Graph

°F

Salzwedel Temperature Yesterday

Maximum temperature yesterday: 34 °F (at 1:20 pm)
Minimum temperature yesterday: 12 °F (at 7:20 am)
Average temperature yesterday: 21 °F

High & Low Weather Summary for the Past Weeks

 TemperatureHumidityPressure
High59 °F (Nov 21, 11:20 am)100% (Nov 22, 8:20 pm)30.57 "Hg (Nov 22, 8:20 pm)
Low12 °F (Dec 5, 7:20 am)49% (Dec 2, 2:20 pm)29.62 "Hg (Nov 21, 5:20 am)
Average34 °F88%30.19 "Hg
* Reported Nov 21 5:20 am — Dec 6 5:20 am, Salzwedel, Weather by CustomWeather, © 2016

Note: Actual official high and low records may vary slightly from our data, if they occured in-between our weather recording intervals... More about our weather records

Advertising

Salzwedel Weather History for the Previous 24 Hours

Scroll right to see more
 ConditionsComfort  
Time TempWeatherWind HumidityBarometerVisibility
5:20 am
Tue, Dec 6
25 °FPassing clouds.3 mph93%30.36 "HgN/A
4:20 am25 °FPassing clouds.2 mph93%30.36 "HgN/A
3:20 am25 °FPassing clouds.3 mph93%30.36 "HgN/A
2:20 am21 °FPassing clouds.2 mph93%30.36 "HgN/A
1:20 am19 °FPassing clouds.2 mph93%30.36 "HgN/A
12:20 am18 °FFog.No wind93%30.33 "HgN/A
11:20 pm
Mon, Dec 5
18 °FFog.1 mph86%30.33 "HgN/A
10:20 pm19 °FFog.1 mph93%30.33 "Hg5 mi
9:20 pm19 °FFog.No wind93%30.33 "Hg5 mi
8:20 pm19 °FIce fog.1 mph100%30.33 "Hg0 mi
7:20 pm21 °FIce fog.1 mph93%30.30 "Hg0 mi
6:20 pm21 °FIce fog.No wind100%30.30 "Hg0 mi
5:20 pm25 °FIce fog.1 mph93%30.30 "Hg0 mi
4:20 pm28 °FIce fog.1 mph93%30.30 "Hg0 mi
3:20 pm32 °FPassing clouds.3 mph87%30.30 "HgN/A
2:20 pm34 °FPassing clouds.3 mph81%30.30 "HgN/A
1:20 pm34 °FPassing clouds.2 mph87%30.30 "HgN/A
12:20 pm30 °FPassing clouds.2 mph93%30.33 "HgN/A
11:20 am27 °FPassing clouds.1 mph93%30.33 "HgN/A
10:20 am21 °FPassing clouds.1 mph93%30.33 "HgN/A
9:20 am14 °FCold.2 mph92%30.33 "HgN/A
8:20 am12 °FPassing clouds.1 mph92%30.33 "HgN/A
7:20 am12 °FCold.2 mph92%30.33 "HgN/A
6:20 am14 °FPassing clouds.2 mph92%30.33 "Hg5 mi
Weather by CustomWeather, © 2016

See weather overviewHow to use our weather pages